#timestamp,LO_Frequency,Hit,StdDev 
1593630015.7,286046998.3,N
1593630035.5,286046999.4,N
1593630055.4,286046999.1,N
1593630075.2,286046997.2,N
1593630095.0,286046996.9,N
1593630095.9,286046996.9,N
1593630115.8,286046999.5,N
1593630135.6,286046999.6,N
1593630155.4,286047000.7,N
1593630175.3,286047000.8,N
1593630195.1,286046998.5,N
1593630215.9,286046998.7,N
1593630235.7,286046998.1,N
1593630255.5,286047000.3,N
1593630275.4,286047000.6,N
1593630295.2,286046998.5,N
1593630315.1,286047001.0,N
1593630316.0,286047001.0,N
1593630335.8,286047000.0,N
1593630355.6,286047000.5,N
1593630375.5,286047000.5,N
1593630395.3,286047000.1,N
1593630415.1,286047000.6,N
1593630435.9,286047000.6,N
1593630455.7,286047000.5,N
1593630475.6,286047000.4,N
1593630495.4,286047000.0,N
1593630515.2,286047000.3,N
1593630535.1,286046999.7,N
1593630536.0,286046999.7,N
1593630555.8,286047000.0,N
1593630575.7,286047000.4,N
1593630595.5,286047000.4,N
1593630615.3,286047000.9,N
1593630635.2,286046998.6,N
1593630655.0,286046998.6,N
1593630655.9,286046998.6,N
1593630675.7,286047000.1,N
1593630695.6,286047000.4,N
1593630715.4,286047001.1,N
1593630735.3,286047000.2,N
1593630755.1,286047002.8,Y
1593630775.8,286047000.2,P
1593630795.7,286046999.7,P
1593630815.5,286046999.7,N
1593630835.4,286047000.1,N
1593630855.2,286047001.1,Y
1593630875.0,286047000.2,P
1593630875.9,286047000.2,N
1593630895.8,286047002.3,P
1593630915.6,286047002.2,N
1593630935.5,286047001.3,N
1593630955.3,286047004.0,Y
1593630975.1,286047002.7,P
1593630995.9,286047002.7,P
1593631015.7,286047002.8,P
1593631035.5,286047002.0,N
1593631055.4,286047002.7,Y
1593631075.2,286046998.8,P
1593631095.1,286046999.0,N
1593631096.0,286046999.0,N
1593631115.8,286046999.6,N
1593631135.6,286046998.6,N
1593631155.5,286046998.1,N
1593631175.3,286046998.5,N
1593631195.2,286046998.2,N
1593631215.9,286046998.6,N
1593631235.7,286046998.1,N
1593631255.6,286046998.5,N
1593631275.4,286046998.3,N
1593631295.3,286046998.2,N
1593631315.1,286046998.9,N
1593631316.0,286046998.9,N
1593631335.8,286046999.3,N
1593631355.7,286046999.5,N
1593631375.5,286046999.3,N
1593631395.3,286046999.1,N
1593631415.2,286046998.7,N
1593631435.0,286047000.8,N
1593631435.9,286047000.8,N
1593631455.8,286047001.0,N
1593631475.6,286047000.9,N
1593631495.5,286047000.2,N
1593631515.3,286047000.6,N
1593631535.1,286046998.8,N
1593631555.9,286046998.8,N
1593631575.7,286046998.9,N
1593631595.6,286047001.1,N
1593631615.4,286047000.9,N
1593631635.2,286046999.7,N
1593631655.1,286046999.9,N
1593631656.0,286046999.9,N
1593631675.8,286047002.3,N
1593631695.6,286047000.1,N
1593631715.5,286047000.3,N
1593631735.3,286047000.4,N
1593631755.2,286047000.9,N
1593631775.9,286047000.9,N
1593631795.7,286047001.1,N
1593631815.6,286047001.0,N
1593631835.4,286047000.1,N
1593631855.2,286047000.6,N
1593631875.1,286046998.3,N
1593631876.0,286046998.3,N
1593631895.8,286046998.7,N
1593631915.7,286046998.4,N
1593631935.5,286047000.8,N
1593631955.3,286046998.2,N
1593631975.2,286047000.7,N
1593631995.0,286046998.5,N
1593631995.9,286046998.5,N
1593632015.8,286046998.9,N
1593632035.6,286046996.6,Y
1593632055.4,286046996.8,P
1593632075.3,286046996.8,N
1593632095.1,286046997.3,N
1593632115.9,286046997.7,N
1593632135.7,286046995.3,Y
1593632155.5,286046999.6,P
1593632175.4,286046997.1,P
1593632195.2,286046997.9,N
1593632215.1,286046998.0,N
1593632216.0,286046998.0,N
1593632235.8,286046995.4,Y
1593632255.7,286046998.8,P
1593632275.5,286046998.9,P
1593632295.3,286046999.2,N
1593632315.2,286046999.6,N
1593632335.0,286046999.6,N
1593632335.9,286046999.6,N
1593632355.7,286046999.6,N
1593632375.6,286046996.5,Y
1593632395.4,286046998.5,P
1593632415.3,286046998.8,P
1593632435.1,286047000.8,N
1593632455.8,286046998.9,N
1593632475.7,286046996.5,Y
1593632495.5,286046999.3,P
1593632515.4,286046996.8,P
1593632535.2,286046999.1,N
1593632555.0,286046999.4,N
1593632555.9,286046999.4,N
1593632575.8,286046998.8,N
1593632595.6,286046999.1,N
1593632615.5,286046998.7,N
1593632635.3,286047000.8,N
1593632655.1,286046998.2,N
1593632675.9,286046998.4,N
1593632695.7,286046999.1,N
1593632715.5,286046996.7,Y
1593632735.4,286046999.2,P
1593632755.2,286046996.8,P
1593632775.1,286046997.0,N
1593632776.0,286046997.0,N
1593632795.8,286046999.6,N
1593632815.6,286046999.1,N
1593632835.5,286046999.0,N
1593632855.3,286046996.6,Y
1593632875.2,286046998.5,P
1593632895.9,286046998.9,P
1593632915.7,286047000.4,N
1593632935.6,286047002.4,N
1593632955.4,286047002.4,N
1593632975.2,286047001.8,N
1593632995.1,286047003.8,N
1593632996.0,286047003.8,N
1593633015.8,286047005.8,N
1593633035.7,286047003.1,N
1593633055.5,286047002.9,N
1593633075.3,286047004.4,N
1593633095.2,286047003.7,N
1593633115.0,286047003.7,N
1593633115.9,286047003.7,N
1593633135.8,286047004.1,N
1593633155.6,286047005.6,N
1593633175.4,286047003.4,N
1593633195.3,286047003.2,N
1593633215.1,286047004.8,N
1593633235.8,286047004.7,N
1593633255.7,286047004.7,N
1593633275.5,286047004.6,N
1593633295.4,286047004.8,N
1593633315.2,286047004.7,N
1593633335.0,286047004.5,N
1593633335.9,286047004.5,N
1593633355.8,286047004.8,N
1593633375.6,286047004.6,N
1593633395.5,286047005.3,N
1593633415.3,286047005.5,Y
1593633435.1,286047000.1,P
1593633455.9,286047002.2,N
1593633475.7,286047002.4,N
1593633495.6,286047001.6,N
1593633515.4,286047002.4,N
1593633535.2,286047002.5,N
1593633555.1,286047004.0,Y
1593633556.0,286047004.0,P
1593633575.8,286046999.9,N
1593633595.7,286047002.7,N
